RH
15 15 15 26 34 35 37 33 35 34 38 31 26 24 26 26 18 13 10 17 19 19 20 24 24 22 25 22 22 20 29 44 38 45 60 90 77 68 84 100 90 86 52 69 73
13 15 14 15 22 30 30 36 35 33 32 33 24 26 23 28 19 20 12 11 15 18 19 20 22 23 23 23 22 23 26 28 34 42 56 66 56 51 60 60 54 48 35 42 68
18 18 16 16 15 14 18 20 26 24 22 23 26 25 25 23 23 16 25 14 11 12 16 18 20 23 22 22 22 22 23 24 27 31 41 48 46 51 50 47 43 42 36 45 33
20 21 20 17 19 16 14 14 15 16 17 16 19 31 30 26 20 19 21 24 19 11 11 14 18 17 18 19 21 22 23 23 25 27 26 32 36 39 38 35 36 42 34 36 68
18 16 18 20 21 16 16 18 19 20 20 20 22 27 34 30 27 21 20 24 26 15 11 10 12 15 16 15 16 19 21 22 22 28 28 26 26 39 36 32 28 31 32 65 100
16 17 16 17 17 15 19 22 22 17 16 17 19 20 24 26 29 26 21 21 28 22 15 12 11 12 12 12 15 15 16 18 16 21 24 24 26 28 29 30 30 33 46 72 72
27 24 20 18 16 17 17 18 19 19 21 19 16 15 17 18 26 28 19 20 26 28 15 15 13 12 12 12 10 11 14 15 16 16 18 20 22 24 25 26 29 28 26 23 33
25 27 26 24 23 21 18 15 14 14 16 17 17 18 20 21 19 24 28 21 20 22 24 18 17 14 12 13 14 12 10 10 13 15 15 14 16 17 20 23 24 22 21 19 22
17 18 20 21 22 23 24 23 22 19 16 13 12 12 12 13 18 24 25 27 19 20 19 23 18 19 14 13 13 18 14 8 8 12 14 15 14 14 14 14 17 19 17 14 17
16 14 14 14 14 14 15 16 18 22 22 22 20 15 11 11 10 12 17 20 25 17 19 22 23 23 16 14 14 14 13 8 7 8 11 12 12 12 12 11 11 12 11 11 10
18 17 16 15 14 14 13 12 12 15 15 15 18 20 18 18 15 10 10 12 14 18 17 22 25 28 16 13 13 14 12 11 12 10 8 7 7 7 7 7 7 8 10 8 13
23 21 20 18 18 16 15 15 14 14 12 12 12 13 13 14 16 16 14 10 10 12 14 17 25 20 17 17 17 14 13 12 11 11 11 10 10 10 8 8 9 9 8 14 24
26 24 20 21 23 21 18 17 17 15 14 14 13 12 12 11 11 12 12 12 13 12 12 14 16 17 17 16 15 15 15 12 9 10 12 12 11 11 10 10 9 8 10 16 15
22 23 23 21 21 21 20 22 20 19 16 16 16 14 14 14 14 12 10 10 10 10 13 16 16 14 17 12 16 16 17 13 10 9 10 10 12 11 10 10 10 9 11 16 14
25 24 21 23 22 22 24 22 23 21 20 20 19 17 17 16 15 14 13 10 8 8 8 11 18 19 12 13 13 16 14 11 10 10 7 10 13 12 12 12 11 9 10 18 11
45 41 36 34 34 32 31 30 27 24 24 23 24 19 19 19 18 17 15 15 12 10 8 7 10 15 21 11 10 13 13 11 9 8 6 9 12 13 13 14 11 10 10 15 10
33 35 31 29 32 34 32 32 39 34 32 29 24 22 22 20 18 19 18 16 15 13 11 8 9 8 12 18 10 10 10 11 8 7 11 10 10 15 15 14 12 10 10 8 10
27 29 30 29 34 32 31 39 41 43 39 35 34 27 23 22 20 18 18 17 15 13 12 12 10 8 6 11 14 10 8 8 8 9 18 9 10 12 16 15 14 12 11 9 11
29 27 25 23 22 24 27 33 40 42 45 41 34 28 28 24 20 17 15 13 13 12 11 11 10 10 10 8 10 15 9 10 7 9 14 7 11 12 13 14 15 13 12 12 13
30 31 34 35 32 27 26 26 27 28 29 27 25 24 21 19 17 17 15 12 10 10 10 10 10 9 9 11 9 9 17 8 5 6 9 9 11 11 11 12 13 15 13 13 14
27 27 26 26 28 29 32 34 35 36 32 31 29 27 23 21 18 15 13 12 10 10 9 8 8 8 9 9 10 8 9 8 5 5 10 14 11 12 12 11 11 14 14 14 14
19 19 19 18 18 21 24 25 26 24 24 22 20 17 14 13 10 9 8 7 8 8 8 7 6 7 8 8 9 9 8 7 6 6 7 11 11 12 22 11 10 10 14 15 13
20 21 22 24 24 25 28 30 35 39 39 36 32 25 20 15 12 12 10 5 5 4 4 5 5 6 6 6 7 8 8 7 6 8 7 8 12 11 24 13 11 10 12 14 13
22 25 28 35 39 47 53 54 54 54 48 44 37 30 23 16 12 10 10 7 4 3 3 3 3 5 6 5 4 6 7 7 4 4 7 8 11 11 32 15 12 11 11 11 12
25 34 43 51 64 61 61 57 50 48 41 33 22 16 12 11 9 9 5 4 3 2 3 2 3 3 5 5 4 6 7 7 4 5 8 8 7 12 27 28 11 14 9 9 10
32 49 64 74 65 59 66 56 47 40 33 16 14 9 7 7 6 4 3 3 2 2 2 2 2 2 3 4 3 5 7 7 6 4 6 9 8 12 33 42 20 10 10 9 9
43 55 63 64 65 67 63 54 47 46 31 12 7 5 4 3 3 3 2 2 2 2 2 2 2 2 3 3 3 3 5 6 6 4 6 8 8 12 25 40 32 13 9 9 9
Wind_Speed
39 40 43 45 45 43 43 40 38 35 33 29 24 21 18 19 17 20 36 42 42 40 38 36 34 33 30 27 24 25 27 22 27 30 28 23 20 19 20 14 16 22 24 32 32
38 40 41 45 48 48 47 46 44 42 39 37 31 27 25 23 25 21 26 35 43 45 44 40 38 36 35 30 27 24 28 25 25 29 28 25 23 21 20 23 28 29 29 29 29
37 38 41 43 46 48 48 48 48 46 43 41 38 33 31 29 28 29 26 26 36 42 48 46 43 41 38 33 32 30 27 25 25 24 28 27 25 22 22 23 22 21 25 25 24
42 43 43 44 45 46 47 47 47 46 45 43 41 39 37 35 34 33 34 31 32 37 43 50 50 45 43 40 38 36 34 31 27 28 27 26 26 25 25 23 23 21 22 21 23
43 45 47 48 48 49 49 48 48 47 47 46 44 44 42 41 40 39 39 38 35 35 36 42 48 50 49 46 44 41 40 38 35 33 33 31 30 29 29 28 25 24 24 19 23
45 46 47 47 49 51 51 52 52 52 52 51 50 49 49 48 46 45 44 44 41 41 38 37 41 42 49 50 50 48 47 46 41 40 38 36 34 33 33 30 28 26 23 22 28
52 53 53 52 52 53 54 54 55 55 55 55 55 53 53 53 51 49 48 50 48 46 46 41 38 38 41 43 50 54 53 51 48 44 43 42 40 39 36 34 30 29 30 32 31
60 60 62 61 60 58 58 57 57 58 58 59 58 58 57 55 54 53 51 52 53 51 49 48 44 41 40 39 38 42 51 55 54 52 49 47 45 42 39 37 35 35 33 33 33
62 61 64 66 68 66 66 65 64 63 62 62 62 62 61 60 59 57 56 54 54 56 54 53 51 48 46 43 39 40 44 48 53 54 53 52 50 45 41 40 40 39 37 34 34
63 63 64 66 68 69 69 70 71 71 71 69 69 67 66 65 65 63 62 60 57 56 57 57 57 55 54 50 46 44 47 46 49 52 55 54 53 50 45 44 42 39 34 34 24
64 65 65 65 66 69 70 71 71 73 74 74 75 75 74 73 71 70 68 67 65 62 60 60 58 60 63 58 53 48 46 46 41 37 38 42 42 40 40 39 35 30 29 25 20
61 64 64 66 70 72 72 70 69 70 73 75 76 76 77 78 78 78 76 73 71 69 68 64 62 66 66 63 59 54 50 51 48 40 34 31 28 25 27 26 25 27 25 22 18
66 68 68 67 69 70 72 75 77 76 74 73 74 74 75 77 80 81 82 83 80 76 74 71 70 69 68 68 66 62 56 58 56 47 40 33 29 25 24 25 25 22 22 26 20
66 71 70 69 71 72 73 74 74 74 78 78 80 79 79 79 76 79 84 86 87 86 84 79 76 76 73 70 70 68 65 63 61 55 48 39 32 29 26 27 23 24 23 26 19
61 67 71 72 72 73 74 76 76 76 78 74 78 83 83 83 84 84 83 85 88 89 89 89 86 82 79 77 75 74 74 71 67 61 54 41 37 34 29 29 26 27 25 27 22
58 62 63 66 69 73 76 77 79 78 78 78 80 84 86 87 88 88 87 86 86 89 91 94 92 90 87 84 82 80 79 77 75 68 57 49 42 37 30 35 33 28 26 29 25
67 68 69 68 68 70 71 72 74 76 77 79 83 86 89 90 92 93 95 93 93 92 91 94 94 97 96 92 89 87 83 81 81 74 56 57 50 45 39 42 37 32 30 24 24
60 66 70 74 74 74 73 71 72 73 74 76 79 83 87 93 95 96 98 101 101 98 96 96 95 99 98 99 97 93 89 86 83 78 62 66 53 52 50 48 42 35 33 24 27
36 39 46 54 61 66 72 74 76 77 78 80 82 84 87 91 94 99 102 105 105 105 107 101 104 98 99 101 104 100 96 84 87 86 74 70 62 63 58 55 48 42 36 33 32
39 39 40 40 42 47 53 58 65 69 72 75 77 79 84 89 94 96 99 98 100 103 107 105 111 107 100 104 104 109 99 100 95 89 80 76 70 63 64 62 56 51 45 42 39
43 43 42 42 41 42 43 46 49 56 60 63 67 69 74 77 81 85 87 91 96 99 100 98 104 105 106 108 106 111 117 110 98 91 84 79 72 67 71 68 63 59 54 50 45
39 39 38 38 37 38 42 46 49 52 56 60 63 65 67 69 71 75 77 80 84 89 94 95 100 108 110 108 115 110 118 113 106 95 87 85 81 76 73 71 69 65 62 57 51
35 35 35 33 34 35 36 39 42 45 49 55 58 61 64 64 63 65 68 70 75 78 81 87 93 100 106 113 120 120 120 122 114 103 93 88 81 77 73 76 76 70 68 65 59
30 28 27 28 29 28 30 33 37 43 49 54 59 62 64 62 62 62 67 68 67 70 75 78 85 94 103 112 122 120 123 125 119 108 100 90 87 82 80 83 80 75 74 69 61
28 25 25 24 27 28 30 34 39 43 48 54 58 58 56 53 54 56 59 63 63 63 69 73 78 90 102 110 108 115 124 125 119 110 101 94 89 85 83 86 85 80 76 70 65
26 25 24 26 27 29 33 36 39 42 49 48 49 47 45 43 42 46 48 49 52 56 60 66 73 83 94 107 105 110 120 126 121 113 107 98 89 85 92 89 88 83 75 70 66
26 25 27 28 28 30 33 35 37 44 48 38 37 34 32 31 32 34 38 42 44 47 52 57 67 73 84 98 106 109 112 121 120 115 110 100 94 95 96 89 87 80 77 73 67
Wind_Direction
248 250 249 246 249 252 254 256 258 260 260 257 248 247 246 235 217 220 217 221 222 224 224 226 226 220 225 228 230 227 228 228 223 230 229 232 234 237 240 213 243 279 285 291 292
252 254 254 252 251 252 254 256 257 259 258 259 251 246 245 247 229 222 221 222 225 225 227 226 227 229 229 228 231 231 227 230 228 228 229 235 238 242 238 251 271 275 283 298 300
256 255 254 252 252 253 254 255 257 258 258 256 255 248 244 244 248 225 228 222 225 227 228 226 227 229 232 229 231 235 235 237 233 233 233 236 240 242 252 259 271 286 287 298 309
256 256 256 256 256 254 254 255 255 256 256 253 251 253 249 248 247 242 228 227 229 226 229 230 232 229 232 233 233 233 234 234 231 238 240 242 242 247 252 266 277 281 285 290 303
259 257 256 255 255 255 255 255 254 255 255 254 252 251 253 253 250 243 237 231 233 226 227 227 231 233 233 234 234 235 237 237 235 235 239 243 246 250 255 261 272 276 286 288 290
262 261 259 256 256 256 255 256 255 253 253 253 252 251 252 252 249 247 243 234 234 233 225 227 226 225 232 233 234 235 238 239 235 238 241 244 248 250 257 263 270 279 286 279 293
262 261 259 257 255 254 254 252 253 253 253 252 251 250 250 249 249 246 242 238 234 235 229 226 228 227 227 229 233 235 236 237 238 237 241 243 247 251 256 263 268 273 282 291 295
261 261 262 260 259 258 256 255 254 253 252 251 251 251 250 248 247 246 242 237 236 236 235 229 227 230 227 226 228 231 234 235 237 238 239 243 245 247 253 260 265 271 275 284 288
260 258 258 259 259 257 256 255 254 253 253 252 251 250 249 248 247 245 243 240 234 236 234 233 228 229 229 228 228 233 233 234 235 236 238 241 244 247 250 255 259 265 272 279 281
262 259 258 257 258 257 255 254 253 253 251 251 251 250 248 248 246 244 243 243 240 233 234 233 233 231 229 228 227 231 236 235 238 238 239 241 245 249 249 252 257 262 269 269 273
263 261 259 258 259 259 256 255 253 253 252 250 251 250 249 249 247 245 242 241 240 239 233 233 235 235 228 229 228 230 236 239 236 237 240 241 241 243 243 246 251 257 249 256 239
262 261 260 260 259 258 258 256 254 253 253 252 250 249 249 248 247 246 245 242 240 238 239 233 234 235 231 228 228 226 229 238 236 233 233 235 231 229 231 230 230 232 244 220 200
259 260 259 258 258 257 257 256 255 253 252 251 251 250 247 247 246 246 245 242 240 239 237 236 233 234 233 230 227 226 225 230 235 230 227 226 227 222 213 211 215 235 219 199 185
262 260 259 260 259 258 257 256 255 255 253 251 250 249 249 246 244 244 242 241 241 238 236 236 235 233 233 230 230 227 224 228 232 233 226 214 220 218 211 216 216 224 207 198 190
263 262 260 257 258 257 257 257 255 255 254 250 250 250 246 246 245 242 241 240 239 238 236 234 234 233 232 230 229 230 225 224 229 230 230 218 214 217 214 222 220 218 207 199 190
264 262 261 262 261 260 259 258 256 256 255 254 250 249 247 246 245 245 243 241 240 238 237 236 234 231 230 229 228 229 226 225 226 226 227 224 216 218 208 218 213 214 209 198 195
266 264 264 263 260 262 261 259 258 257 255 253 252 249 248 247 245 245 244 243 240 240 239 236 235 233 229 228 228 228 226 224 225 226 220 224 215 214 212 221 218 212 212 217 201
272 270 269 268 266 261 259 258 257 256 257 256 254 252 250 251 249 247 244 243 242 240 239 239 238 233 230 228 228 227 226 223 224 223 215 221 215 216 209 216 220 218 214 221 204
291 283 277 272 267 264 261 260 259 258 259 260 258 254 251 249 249 249 248 244 242 241 240 238 240 234 231 229 227 227 226 224 222 222 214 218 213 216 211 215 217 220 215 214 210
295 289 284 282 277 270 266 263 260 260 259 258 258 257 253 251 251 250 249 248 245 243 241 239 239 234 230 230 226 226 225 223 220 218 214 214 214 213 216 216 212 217 214 212 211
293 288 283 279 276 272 269 265 261 259 260 260 260 257 256 255 254 252 251 249 248 246 243 238 237 233 229 228 228 221 224 223 220 214 212 210 210 211 218 215 213 212 216 212 211
299 295 291 287 281 273 270 269 268 266 265 263 263 262 260 258 256 255 252 249 247 243 241 238 235 233 231 228 226 225 222 222 219 214 213 210 206 208 215 217 215 214 212 215 213
306 301 296 290 283 280 276 273 271 269 268 268 267 266 264 262 258 256 255 251 247 244 239 234 232 230 228 224 225 223 221 219 214 215 211 208 205 207 215 219 219 213 215 213 214
313 304 294 289 283 278 274 273 273 272 272 271 270 268 267 266 262 258 254 252 250 244 240 233 228 227 225 222 221 219 221 218 214 211 208 204 206 204 209 216 219 216 216 215 215
320 309 301 296 292 294 294 288 286 285 284 279 277 274 269 267 265 262 257 253 248 243 238 233 228 223 222 223 219 218 220 218 212 208 209 206 203 201 212 215 217 219 218 218 216
321 310 300 298 300 307 304 301 300 301 299 291 286 285 282 274 266 261 258 252 247 240 235 231 227 222 221 221 220 216 215 215 210 205 206 204 200 202 210 215 215 216 220 220 218
321 313 307 309 310 315 317 316 317 319 313 311 299 293 285 277 268 262 255 251 245 239 233 228 225 222 219 222 221 215 213 214 208 204 204 203 199 200 211 215 218 214 217 220 222